Total_Precipitation_Accumulation
0.78 0.78 0.78 0.76 0.74 0.74 0.74 0.71 0.73 0.78 0.79 0.82 0.96 1.03 1.11 1.18 1.35 1.60 1.76 1.77 1.70 1.68 1.67 1.73 1.86 1.96 2.19 2.17 2.09 1.96 1.80 1.60 1.43 1.26 1.05 0.86 0.91 0.97 1.02 0.98 0.89 0.84 0.69
0.88 0.86 0.78 0.70 0.67 0.67 0.64 0.57 0.57 0.55 0.54 0.66 0.78 0.83 0.88 0.93 1.09 1.39 1.58 1.62 1.56 1.47 1.45 1.54 1.73 1.92 2.14 2.23 2.19 2.04 1.92 1.77 1.63 1.53 1.35 1.09 0.98 0.99 1.10 1.15 1.08 1.00 0.91
0.92 0.82 0.74 0.68 0.59 0.55 0.49 0.45 0.51 0.52 0.57 0.66 0.75 0.80 0.84 0.89 0.92 1.02 1.18 1.29 1.28 1.22 1.24 1.28 1.33 1.51 1.75 1.95 2.00 2.02 2.04 2.00 1.92 1.75 1.54 1.36 1.19 1.07 1.10 1.13 1.09 1.13 1.06
1.06 0.96 0.85 0.73 0.62 0.56 0.49 0.45 0.43 0.45 0.51 0.57 0.61 0.69 0.79 0.84 0.83 0.83 0.87 0.95 0.96 0.99 1.04 1.10 1.14 1.15 1.31 1.49 1.62 1.82 2.03 2.03 2.01 1.90 1.69 1.47 1.32 1.19 1.19 1.20 1.21 1.20 1.17
1.08 1.07 0.93 0.74 0.61 0.54 0.50 0.43 0.40 0.41 0.42 0.48 0.53 0.57 0.63 0.71 0.76 0.77 0.68 0.66 0.73 0.81 0.85 0.85 0.88 0.95 1.06 1.13 1.20 1.52 1.83 1.96 1.93 1.87 1.76 1.59 1.37 1.26 1.14 1.09 1.18 1.36 1.36
0.99 0.97 0.75 0.58 0.46 0.41 0.41 0.39 0.35 0.34 0.39 0.44 0.44 0.47 0.56 0.58 0.69 0.66 0.52 0.52 0.56 0.67 0.76 0.76 0.68 0.68 0.74 0.79 0.87 1.04 1.28 1.48 1.69 1.83 1.78 1.59 1.40 1.27 1.20 1.20 1.22 1.28 1.34
0.64 0.60 0.51 0.40 0.38 0.41 0.43 0.37 0.34 0.34 0.35 0.38 0.39 0.40 0.46 0.58 0.58 0.42 0.40 0.45 0.53 0.59 0.67 0.73 0.67 0.57 0.63 0.67 0.76 0.84 0.85 0.92 1.16 1.44 1.57 1.54 1.59 1.41 1.33 1.26 1.21 1.25 1.28
0.40 0.40 0.34 0.31 0.31 0.34 0.35 0.34 0.40 0.44 0.42 0.42 0.44 0.44 0.44 0.49 0.46 0.33 0.34 0.39 0.46 0.53 0.63 0.72 0.77 0.69 0.68 0.77 0.78 0.80 0.75 0.71 0.88 0.90 1.06 1.34 1.47 1.50 1.44 1.48 1.60 1.54 1.39
0.12 0.13 0.12 0.12 0.13 0.14 0.16 0.22 0.33 0.40 0.42 0.44 0.48 0.48 0.43 0.40 0.39 0.30 0.29 0.38 0.46 0.53 0.56 0.62 0.70 0.66 0.78 0.85 0.85 0.96 0.93 0.83 0.93 0.98 1.01 1.03 1.11 1.21 1.30 1.36 1.43 1.48 1.45
0.01 0.01 0.01 0.02 0.02 0.04 0.06 0.09 0.15 0.19 0.24 0.32 0.34 0.38 0.41 0.38 0.46 0.33 0.32 0.38 0.49 0.60 0.64 0.63 0.76 0.75 0.78 0.76 0.74 0.95 0.98 0.87 0.79 0.84 0.84 0.80 0.74 0.81 0.96 1.11 1.28 1.34 1.30
0.00 0.00 0.00 0.00 0.00 0.01 0.02 0.03 0.06 0.08 0.12 0.17 0.21 0.27 0.34 0.39 0.46 0.43 0.46 0.48 0.54 0.68 0.70 0.63 0.58 0.66 0.56 0.60 0.64 0.68 0.88 0.88 0.78 0.82 0.82 0.76 0.69 0.69 0.75 0.86 1.05 1.21 1.22
0.00 0.00 0.00 0.00 0.00 0.01 0.01 0.02 0.02 0.03 0.06 0.09 0.11 0.16 0.22 0.27 0.33 0.38 0.38 0.41 0.47 0.60 0.68 0.57 0.55 0.61 0.47 0.45 0.47 0.57 0.69 0.79 0.77 0.81 0.79 0.77 0.70 0.63 0.64 0.70 0.78 0.83 0.86
0.00 0.00 0.01 0.01 0.01 0.01 0.01 0.01 0.02 0.03 0.05 0.06 0.09 0.15 0.21 0.28 0.29 0.25 0.22 0.24 0.29 0.43 0.49 0.50 0.50 0.47 0.43 0.41 0.42 0.47 0.54 0.63 0.77 0.77 0.70 0.68 0.62 0.58 0.55 0.55 0.62 0.68 0.69
0.00 0.00 0.00 0.01 0.01 0.01 0.02 0.03 0.03 0.04 0.05 0.09 0.14 0.19 0.23 0.26 0.28 0.25 0.26 0.28 0.27 0.32 0.34 0.34 0.37 0.40 0.43 0.42 0.40 0.43 0.50 0.59 0.63 0.60 0.55 0.54 0.54 0.55 0.59 0.59 0.60 0.64 0.69
0.00 0.00 0.00 0.01 0.01 0.01 0.01 0.01 0.02 0.03 0.04 0.10 0.17 0.21 0.21 0.21 0.15 0.14 0.24 0.34 0.40 0.46 0.53 0.49 0.50 0.50 0.47 0.42 0.39 0.40 0.43 0.47 0.47 0.44 0.42 0.39 0.38 0.42 0.48 0.52 0.53 0.53 0.57
0.00 0.00 0.00 0.01 0.01 0.01 0.01 0.01 0.01 0.02 0.05 0.07 0.07 0.09 0.10 0.09 0.09 0.10 0.16 0.26 0.34 0.45 0.60 0.66 0.69 0.70 0.64 0.53 0.43 0.37 0.32 0.33 0.35 0.37 0.38 0.37 0.35 0.36 0.40 0.41 0.43 0.42 0.43
0.00 0.00 0.00 0.01 0.01 0.01 0.02 0.04 0.05 0.04 0.02 0.01 0.01 0.02 0.08 0.15 0.19 0.23 0.24 0.28 0.31 0.42 0.61 0.68 0.69 0.67 0.59 0.52 0.47 0.38 0.32 0.28 0.29 0.30 0.29 0.31 0.31 0.32 0.35 0.34 0.34 0.34 0.34
0.00 0.00 0.01 0.03 0.05 0.06 0.06 0.09 0.14 0.17 0.15 0.07 0.02 0.01 0.04 0.12 0.16 0.18 0.25 0.37 0.39 0.45 0.53 0.54 0.54 0.42 0.33 0.30 0.26 0.22 0.18 0.18 0.20 0.19 0.18 0.19 0.21 0.22 0.23 0.26 0.29 0.31 0.32
0.00 0.01 0.03 0.08 0.10 0.08 0.09 0.13 0.15 0.11 0.09 0.08 0.05 0.02 0.02 0.04 0.06 0.08 0.16 0.34 0.36 0.30 0.25 0.21 0.19 0.16 0.12 0.11 0.10 0.10 0.09 0.08 0.08 0.08 0.07 0.08 0.10 0.12 0.14 0.17 0.21 0.25 0.28
0.00 0.00 0.02 0.07 0.10 0.08 0.08 0.09 0.08 0.06 0.04 0.05 0.05 0.05 0.05 0.06 0.08 0.08 0.09 0.14 0.13 0.09 0.07 0.07 0.07 0.05 0.05 0.05 0.05 0.04 0.04 0.04 0.05 0.05 0.05 0.05 0.06 0.08 0.10 0.14 0.18 0.20 0.22
0.00 0.01 0.01 0.04 0.06 0.05 0.05 0.06 0.05 0.05 0.05 0.05 0.04 0.03 0.05 0.09 0.09 0.08 0.07 0.06 0.05 0.04 0.04 0.06 0.04 0.03 0.03 0.04 0.04 0.04 0.04 0.05 0.04 0.04 0.04 0.05 0.06 0.08 0.10 0.14 0.19 0.22 0.23
0.01 0.02 0.03 0.05 0.06 0.04 0.05 0.07 0.09 0.08 0.06 0.07 0.06 0.05 0.06 0.09 0.09 0.07 0.06 0.06 0.05 0.05 0.06 0.08 0.08 0.06 0.05 0.05 0.05 0.05 0.05 0.05 0.05 0.05 0.05 0.05 0.05 0.06 0.08 0.12 0.16 0.20 0.25
0.02 0.02 0.04 0.06 0.06 0.05 0.06 0.08 0.10 0.09 0.08 0.09 0.09 0.09 0.08 0.10 0.09 0.09 0.09 0.09 0.09 0.09 0.08 0.09 0.11 0.10 0.08 0.07 0.08 0.08 0.08 0.07 0.07 0.07 0.07 0.07 0.07 0.08 0.09 0.10 0.11 0.14 0.18
0.03 0.04 0.05 0.07 0.07 0.06 0.07 0.09 0.10 0.09 0.09 0.10 0.11 0.11 0.11 0.10 0.08 0.07 0.08 0.09 0.10 0.11 0.09 0.08 0.08 0.08 0.07 0.08 0.09 0.10 0.13 0.13 0.09 0.08 0.08 0.09 0.10 0.10 0.13 0.15 0.19 0.21 0.22
0.04 0.05 0.05 0.06 0.07 0.06 0.07 0.08 0.10 0.10 0.10 0.11 0.11 0.10 0.10 0.10 0.08 0.06 0.07 0.07 0.08 0.09 0.08 0.08 0.08 0.07 0.06 0.06 0.08 0.09 0.15 0.17 0.14 0.12 0.10 0.09 0.11 0.14 0.18 0.25 0.31 0.33 0.34
0.04 0.05 0.05 0.06 0.07 0.06 0.06 0.07 0.09 0.10 0.11 0.11 0.11 0.11 0.12 0.12 0.10 0.08 0.07 0.06 0.07 0.07 0.05 0.06 0.07 0.06 0.06 0.07 0.08 0.12 0.16 0.15 0.14 0.13 0.09 0.08 0.10 0.13 0.15 0.17 0.21 0.26 0.30